SZ-21 MODULE

Last updated on Sun Aug 09 2026 00:02:06 GMT+0000 (Coordinated Universal Time)

1 66515U 25246C 26219.71018742 .00036929 00000+0 18377-3 0 9999 2 66515 41.4727 345.3501 0008429 10.6666 349.4357 15.81105012 41889
UTC large
Height (km)
Speed (km/s)
/
Latitude / Longitude
Inclination (degrees)
Orbital Period (minutes)
Azimuth
Elevation
Range (km)
Doppler Factor

Next 0 passes for location: London (51.5072 / 0.1276)

No passes found over London.
SZ-21 MODULE